Flag for Germany Weather past 2 weeks in Ansbach, Bavaria, Germany

Now
43 °F

Low clouds.


Feels Like: 39 °F
Forecast: 34 / 43 °F
Wind: 6 mph from Southwest

Location: Ansbach / Katterbach

Current Time: Mar 1, 2015 at 4:43:06 PM

Latest Report: Mar 1, 2015 at 4:00 PM


Visibility: N/A

Pressure: 29.74 "Hg

Humidity: 100%

Dew point: 43 °F

Location of AnsbachLocation

Historic Weather in Ansbach — Graph

°F

Ansbach temperature yesterday

Maximum temperature yesterday: 41 °F (at 3:58 PM)
Minimum temperature yesterday: 31 °F (at 11:58 PM)
Average temperature yesterday: 35 °F

Past Weeks' High & Low Weather Summary

 TemperatureHumidityPressure
High47 °F (Feb 20, 1:58 PM)100% (Feb 14, 5:58 PM)30.83 "Hg (Feb 14, 5:58 PM)
Low22 °F (Feb 20, 1:58 AM)49% (Feb 26, 12:58 PM)29.50 "Hg (Feb 23, 4:59 PM)
Average32 °F94%30.13 "Hg
* Reported Feb 14 2:58 PM — Mar 1 2:59 PM, Ansbach, Weather by CustomWeather, © 2015

Note: Actual official high and low records may vary slightly from our data, if they occured in-between our weather recording intervals... More about our weather records

Advertising

Ansbach weather history for previous 24 hours

 ConditionsComfort  
Time TempWeatherWind HumidityBarometerVisibility
2:59 PM
Sun, Mar 1
43 °FMostly cloudy.9 mph100%29.76 "HgN/A
2:58 PM43 °FMostly cloudy.9 mph100%29.85 "HgN/A
1:58 PM43 °FLight rain. Fog.8 mph100%29.85 "Hg6 mi
12:59 PM41 °FDrizzle. Low clouds.10 mph100%29.77 "HgN/A
12:58 PM41 °FLow clouds.12 mph100%29.85 "HgN/A
12:04 PM37 °FDrizzle. Fog.8 mph100%29.77 "Hg3 mi
11:58 AM37 °FFog.8 mph100%29.87 "Hg3 mi
10:58 AM36 °FFog.9 mph100%29.86 "Hg4 mi
10:02 AM34 °FDrizzle. Fog.12 mph100%29.76 "Hg3 mi
9:58 AM34 °FLight rain. Fog.10 mph100%29.87 "Hg2 mi
8:58 AM32 °FLight rain. Ice fog.13 mph100%29.90 "Hg4 mi
7:59 AM32 °FLight freezing rain. Ice fog.9 mph100%29.80 "Hg6 mi
7:58 AM33 °FLight rain. Fog.9 mph100%29.90 "Hg6 mi
6:58 AM32 °FClear.7 mph100%29.92 "HgN/A
5:58 AM32 °FClear.10 mph100%29.93 "HgN/A
4:58 AM31 °FPassing clouds.8 mph100%29.96 "HgN/A
3:58 AM31 °FClear.8 mph100%29.96 "HgN/A
2:58 AM31 °FClear.10 mph100%29.98 "HgN/A
1:58 AM30 °FClear.9 mph100%30.03 "HgN/A
12:58 AM31 °FClear.9 mph99%30.05 "HgN/A
11:58 PM
Sat, Feb 28
31 °FClear.8 mph100%30.07 "HgN/A
10:58 PM32 °FClear.7 mph100%30.10 "HgN/A
9:58 PM32 °FClear.6 mph100%30.13 "HgN/A
8:58 PM33 °FClear.6 mph98%30.15 "HgN/A
7:58 PM34 °FClear.6 mph93%30.16 "HgN/A
6:58 PM36 °FPassing clouds.6 mph87%30.16 "HgN/A
5:58 PM37 °FPassing clouds.6 mph75%30.16 "HgN/A
4:58 PM38 °FSunny.5 mph70%30.16 "HgN/A
Weather by CustomWeather, © 2015

See weather overviewHow to use our weather pages